Home > Weather > Willemstad > Past weeks

Flag for Curaçao Weather for the Past 2 Weeks in Willemstad, Curaçao

Now
88 °F

Passing clouds.


Feels Like: 102 °F
Forecast: 82 / 89 °F
Wind: 20 mph from East

Location: Hato Airport - Curacao

Current Time: May 6, 2016 at 3:18:21 PM

Latest Report: May 6, 2016 at 2:00 PM


Visibility: N/A

Pressure: 29.80 "Hg

Humidity: 75%

Dew Point: 79 °F

Location of WillemstadLocation

Historic Weather in Willemstad — Graph

°F

Willemstad Temperature Yesterday

Maximum temperature yesterday: 88 °F (at 11:00 AM)
Minimum temperature yesterday: 81 °F (at 12:00 AM)
Average temperature yesterday: 84 °F

High & Low Weather Summary for the Past Weeks

 TemperatureHumidityPressure
High91 °F (May 2, 1:00 PM)94% (Apr 25, 5:00 AM)29.98 "Hg (Apr 25, 5:00 AM)
Low79 °F (May 2, 2:00 AM)52% (May 2, 1:00 PM)29.71 "Hg (Apr 27, 6:00 PM)
Average84 °F80%29.85 "Hg
* Reported Apr 21 1:00 PM — May 6 1:00 PM, Willemstad, Weather by CustomWeather, © 2016

Note: Actual official high and low records may vary slightly from our data, if they occured in-between our weather recording intervals... More about our weather records

Advertising

Willemstad Weather History for the Previous 24 Hours

Scroll right to see more
 ConditionsComfort  
Time TempWeatherWind HumidityBarometerVisibility
1:00 PM
Fri, May 6
90 °FPassing clouds.17 mph71%29.83 "HgN/A
12:00 PM90 °FPassing clouds.16 mph63%29.83 "HgN/A
11:00 AM91 °FPassing clouds.17 mph63%29.86 "HgN/A
10:00 AM90 °FPassing clouds.21 mph63%29.86 "HgN/A
9:00 AM86 °FScattered clouds.20 mph70%29.89 "HgN/A
8:00 AM86 °FPassing clouds.18 mph75%29.86 "HgN/A
7:00 AM82 °FPassing clouds.13 mph84%29.83 "HgN/A
6:00 AM81 °FPassing clouds.14 mph89%29.83 "HgN/A
5:00 AM81 °FPassing clouds.13 mph89%29.83 "HgN/A
2:00 AM81 °FPassing clouds.13 mph89%29.83 "HgN/A
1:00 AM81 °FPassing clouds.12 mph84%29.86 "HgN/A
12:00 AM82 °FPassing clouds.13 mph79%29.86 "HgN/A
10:00 PM
Thu, May 5
82 °FClear.15 mph84%29.83 "Hg10 mi
9:00 PM82 °FClear.15 mph84%29.83 "Hg10 mi
8:00 PM82 °FPassing clouds.15 mph84%29.80 "HgN/A
7:00 PM82 °FPassing clouds.14 mph84%29.80 "HgN/A
6:00 PM84 °FPassing clouds.14 mph84%29.77 "HgN/A
5:00 PM86 °FPassing clouds.15 mph75%29.77 "HgN/A
4:00 PM88 °FSunny.17 mph70%29.77 "Hg10 mi
3:00 PM88 °FSunny.17 mph75%29.80 "Hg10 mi
Weather by CustomWeather, © 2016

See weather overviewHow to use our weather pages